Flag for U.S.A. Weather past 2 weeks in Durango, Colorado, U.S.A.

Now
48 °F

Passing clouds.


Feels Like: 48 °F
Forecast: 43 / 71 °F
Wind: No wind

Location: Durango-La Plata County Airport

Current Time: May 28, 2015 at 1:19:23 AM

Latest Report: May 28, 2015 at 12:53 AM


Visibility: 10 mi

Pressure: 29.97 "Hg

Humidity: 71%

Dew point: 39 °F

Location of DurangoLocation

Historic Weather in Durango — Graph

°F

Durango temperature yesterday

Maximum temperature yesterday: 73 °F (at 2:53 PM)
Minimum temperature yesterday: 42 °F (at 5:53 AM)
Average temperature yesterday: 59 °F

Past Weeks' High & Low Weather Summary

 TemperatureHumidityPressure
High73 °F (May 27, 2:53 PM)100% (May 19, 5:53 AM)30.16 "Hg (May 19, 5:53 AM)
Low33 °F (May 20, 4:53 AM)17% (May 27, 4:53 PM)29.71 "Hg (May 14, 8:53 PM)
Average50 °F64%29.95 "Hg
* Reported May 12 11:53 PM — May 27 11:53 PM, Durango, Weather by CustomWeather, © 2015

Note: Actual official high and low records may vary slightly from our data, if they occured in-between our weather recording intervals... More about our weather records

Advertising

Durango weather history for previous 24 hours

 ConditionsComfort  
Time TempWeatherWind HumidityBarometerVisibility
11:53 PM
Wed, May 27
53 °FClear.9 mph56%29.95 "Hg10 mi
10:53 PM53 °FClear.No wind61%29.95 "Hg10 mi
9:53 PM58 °FClear.No wind46%29.93 "Hg10 mi
8:53 PM64 °FSunny.3 mph30%29.91 "Hg10 mi
7:53 PM67 °FSunny.7 mph26%29.91 "Hg10 mi
6:53 PM69 °FSunny.13 mph22%29.93 "Hg10 mi
5:53 PM69 °FSunny.12 mph20%29.94 "Hg10 mi
4:53 PM71 °FSunny.7 mph17%29.94 "Hg10 mi
3:53 PM72 °FPassing clouds.17 mph20%29.94 "Hg10 mi
2:53 PM73 °FPassing clouds.16 mph26%29.96 "Hg10 mi
1:53 PM70 °FSunny.N/A30%29.96 "Hg10 mi
12:53 PM66 °FPartly sunny.5 mph34%30.02 "Hg10 mi
11:53 AM66 °FSunny.No wind37%30.02 "Hg10 mi
10:53 AM64 °FSunny.5 mph43%30.05 "Hg10 mi
9:53 AM61 °FSunny.3 mph54%30.05 "Hg10 mi
8:53 AM57 °FSunny.5 mph60%30.05 "Hg10 mi
7:53 AM50 °FPassing clouds.No wind74%30.06 "Hg10 mi
6:53 AM44 °FClear.No wind85%30.07 "Hg10 mi
5:53 AM42 °FPassing clouds.5 mph92%30.07 "Hg10 mi
4:53 AM43 °FPassing clouds.5 mph93%30.05 "Hg10 mi
3:53 AM45 °FPassing clouds.No wind93%30.03 "Hg10 mi
2:53 AM47 °FPassing clouds.9 mph83%30.00 "Hg10 mi
1:53 AM53 °FRain. Mostly cloudy.6 mph66%30.02 "Hg5 mi
Weather by CustomWeather, © 2015

See weather overviewHow to use our weather pages